Wind_Speed
15 15 14 15 16 16 16 15 15 14 14 14 14 13 12 12 12 11 10 10 10 9 10 10 9 9 8 8 8 8 9 9 9 8 7 7 7 8 8 8 8 8 9 8 8 8 7 7 7 7 7 6 6 6 6 5 5 4 4 4 4 3 3 3 3 4 4 4 5 5 5 6 6 6 6 7 7 6 6 6 6 6 6 6 7
15 14 14 14 15 15 15 15 14 14 13 12 12 11 10 12 12 11 10 9 9 8 8 8 8 7 6 7 8 7 8 8 8 7 6 6 6 7 7 7 8 8 8 8 8 7 7 7 7 7 6 6 6 6 6 5 5 4 4 4 3 3 2 2 3 3 4 4 5 5 5 5 6 5 6 6 6 5 5 6 6 6 6 7 7
13 13 13 13 14 14 13 12 12 12 11 11 11 11 10 10 11 11 10 10 10 9 6 4 6 7 6 6 6 5 6 6 7 7 6 6 6 6 6 7 7 7 7 6 6 6 5 5 5 5 6 6 5 5 5 5 4 3 3 3 2 2 2 2 3 4 4 4 4 5 5 5 5 4 5 5 5 5 6 6 6 6 7 7 7
13 12 12 12 13 13 12 11 10 10 9 8 9 9 9 10 11 11 12 14 14 13 9 5 3 6 6 5 4 5 5 5 5 7 6 5 5 5 5 6 6 6 6 5 4 4 4 3 3 3 3 4 3 4 4 3 2 2 2 1 1 1 1 2 3 3 4 4 4 4 5 5 4 4 4 5 5 5 6 6 6 6 7 7 7
14 12 11 11 12 11 11 11 9 8 7 7 7 7 8 10 12 12 14 16 14 13 11 8 6 5 5 4 4 5 4 4 4 5 6 5 4 4 4 4 4 5 5 5 4 3 3 2 2 2 2 2 2 3 3 2 2 1 1 1 1 1 2 3 3 3 4 4 4 4 4 4 4 4 5 5 5 6 6 6 6 6 7 7 7
13 12 11 10 11 9 9 9 9 8 8 8 8 8 8 10 11 12 13 14 13 12 10 12 10 7 6 5 5 7 5 2 3 4 5 5 5 4 3 4 4 4 4 4 4 3 2 2 2 2 2 2 2 2 2 2 2 1 1 1 1 2 2 3 3 3 4 4 4 4 4 4 4 5 5 5 5 5 6 6 6 6 7 6 6
11 11 11 10 10 10 9 9 9 9 9 9 9 8 8 10 11 12 12 13 13 12 10 12 11 9 8 4 5 10 7 3 2 3 3 3 6 7 5 4 4 5 5 5 4 2 2 1 2 2 2 2 2 2 2 2 1 1 1 2 2 2 2 3 3 4 4 4 3 3 4 4 4 5 5 5 5 5 5 5 6 6 6 6 6
11 11 11 11 11 11 10 9 10 10 10 10 9 9 9 10 10 11 11 12 13 13 12 14 12 10 7 5 7 10 8 6 3 2 2 2 6 9 9 7 4 4 5 5 5 4 2 2 2 1 1 1 1 1 2 1 1 0 1 2 2 2 3 3 3 3 3 2 3 3 3 4 4 4 4 4 4 5 5 5 5 5 5 5 5
11 11 10 11 11 10 10 9 10 11 10 10 9 9 10 9 10 11 12 11 13 14 14 14 11 9 8 7 8 9 8 7 5 2 2 3 4 6 7 9 7 5 5 5 6 6 4 3 3 3 3 3 2 1 1 1 1 1 1 2 2 2 2 2 2 2 2 2 2 3 3 3 3 3 3 3 4 4 4 4 5 4 4 4 4
11 11 10 11 11 10 10 10 11 10 10 10 9 8 9 10 10 12 12 12 13 14 13 9 6 9 10 6 5 8 10 8 5 3 1 1 2 4 4 7 9 7 5 6 7 6 6 3 2 3 4 4 3 2 2 2 2 1 1 2 2 2 2 2 2 2 2 2 2 2 2 2 2 2 3 3 3 3 4 4 4 3 3 4 4
11 11 11 10 10 10 10 11 11 10 10 10 8 8 8 9 10 11 12 12 14 15 12 7 7 12 11 4 3 6 9 9 6 4 3 3 2 1 2 4 7 7 6 6 6 7 7 3 1 2 2 3 3 3 3 2 2 2 2 2 2 2 3 3 3 2 2 1 1 1 1 1 2 3 3 3 3 3 3 3 3 3 3 4 4
11 11 10 10 10 10 10 10 11 10 10 9 8 8 8 8 8 9 11 12 14 14 12 8 9 11 8 4 4 5 8 10 8 6 5 4 5 3 1 3 4 4 5 5 5 6 7 4 3 2 2 2 2 2 2 2 2 2 2 3 3 3 3 3 3 2 2 2 1 1 1 2 2 2 3 3 3 3 3 3 3 3 3 4 4
11 10 10 10 10 11 10 10 10 10 8 8 8 9 8 9 9 9 10 12 13 14 13 9 7 8 7 4 4 5 9 11 10 9 7 7 7 5 2 1 3 2 3 5 6 5 6 7 6 5 4 3 2 2 2 3 3 3 3 4 4 3 3 3 3 2 2 2 2 2 2 2 2 2 2 2 3 3 3 3 3 3 4 4 4
11 11 10 10 10 10 10 9 9 9 8 8 8 8 8 9 10 10 10 11 12 12 11 9 9 9 8 6 5 6 7 8 9 8 4 6 8 6 4 2 2 3 3 5 5 3 6 9 9 8 6 5 4 3 4 4 4 4 4 4 4 3 3 3 3 3 3 3 3 2 2 2 2 3 3 3 4 4 4 4 4 4 4 4 5
12 11 10 10 10 10 10 9 8 8 8 7 8 8 8 8 9 9 9 9 9 11 12 11 11 10 9 7 7 6 6 8 9 9 6 4 6 7 7 6 1 3 3 3 2 3 5 7 9 8 5 5 5 5 4 4 4 4 4 3 3 3 3 3 3 3 3 3 4 4 4 4 4 4 4 5 5 5 6 6 6 6 6 6 6
12 12 11 10 9 10 9 8 8 8 7 7 7 7 7 8 9 8 9 9 9 12 13 12 11 10 10 8 7 6 5 7 10 10 8 6 5 7 7 7 2 3 3 2 2 4 5 6 7 6 5 6 5 4 3 3 3 3 3 4 3 4 4 4 4 4 4 4 5 5 5 5 5 6 6 6 7 7 7 7 7 8 8 8 8
13 12 12 10 9 10 9 8 8 7 6 7 7 8 8 8 8 7 7 8 9 11 12 12 11 10 11 8 6 6 3 6 9 9 9 7 6 9 5 5 5 4 3 3 2 4 5 5 6 5 5 6 5 4 3 2 3 3 3 4 4 4 4 4 5 5 5 5 6 6 6 6 7 7 7 7 8 8 8 8 8 9 9 9 9
14 12 12 11 9 9 9 7 7 6 6 6 7 7 8 8 8 7 6 7 8 9 10 11 9 10 11 7 5 3 2 6 8 6 7 4 6 12 6 3 4 5 2 3 1 2 6 6 7 6 4 4 5 4 2 2 3 3 4 5 5 5 5 5 5 5 6 6 6 7 7 7 8 8 9 9 10 10 10 10 10 10 10 10 11
14 13 12 11 9 9 9 7 7 6 5 6 7 7 7 8 7 7 7 7 6 7 9 8 8 9 9 5 4 3 3 6 8 6 7 4 8 13 7 5 4 5 3 3 1 1 7 8 8 8 5 5 6 5 4 3 4 4 4 4 4 5 4 5 5 5 6 6 6 7 8 8 9 10 10 11 11 12 12 12 12 12 12 12 12
13 13 12 12 11 9 9 8 7 7 5 6 6 6 6 6 6 6 6 5 6 8 9 9 10 11 8 3 3 3 3 6 7 7 6 5 9 9 4 4 5 3 2 3 2 3 6 8 7 9 7 7 7 6 6 5 4 5 4 3 3 4 4 4 5 5 6 6 7 8 8 9 10 11 11 12 13 13 13 14 14 14 14 14 14
12 12 12 12 12 10 10 9 7 7 6 6 6 5 3 3 4 5 4 4 6 7 8 10 10 10 9 6 5 7 7 6 5 6 7 7 8 6 3 4 4 2 1 2 2 3 4 6 7 8 7 8 8 6 6 5 4 4 4 3 3 3 4 4 5 6 6 7 8 9 9 10 11 12 12 13 14 14 15 15 15 15 15 15 15
13 13 12 12 12 11 11 9 8 7 7 7 5 2 0 1 2 4 4 4 5 6 7 8 8 7 8 9 8 8 9 6 4 5 7 7 7 4 2 3 4 2 3 2 3 4 5 6 8 8 7 8 9 7 7 6 4 3 3 3 4 4 4 5 6 7 7 9 9 10 11 12 13 14 14 15 15 16 16 17 17 17 17 17 17
14 14 13 13 13 12 11 10 9 9 8 8 5 4 3 0 1 4 5 6 5 5 6 7 7 6 6 8 7 8 9 8 5 4 4 5 7 5 1 2 4 3 3 2 4 5 5 5 5 8 8 7 8 8 6 6 5 3 3 3 4 4 5 6 7 8 9 10 12 12 13 15 15 16 17 18 18 19 19 19 20 20 20 20 19
14 14 14 13 13 13 12 11 11 10 10 11 9 8 6 2 1 3 5 6 6 5 6 7 8 7 5 7 8 7 7 7 7 5 3 3 5 6 3 2 4 4 3 2 3 3 4 4 4 7 9 7 8 9 7 6 5 4 4 4 5 5 6 8 9 10 11 13 14 15 17 18 19 20 20 21 22 22 22 22 23 23 23 23 23
16 15 14 13 13 13 12 12 12 11 11 12 13 12 9 6 4 3 4 6 6 5 6 6 7 7 6 6 7 7 8 7 6 5 4 2 3 6 4 3 3 3 3 3 3 4 6 6 6 7 8 7 8 10 10 8 6 6 6 6 7 8 9 10 11 13 14 16 18 19 20 21 22 22 23 24 24 25 25 26 26 26 26 27 27
16 15 14 14 14 13 12 12 11 11 10 11 12 13 12 10 7 5 5 7 7 5 5 6 7 7 7 6 6 6 8 7 5 3 4 3 1 3 4 4 5 4 3 4 5 4 4 5 6 7 7 7 9 11 12 11 9 9 9 10 11 12 13 14 15 17 18 20 21 22 22 23 23 24 25 25 26 26 27 28 28 28 29 29 29
15 13 13 13 13 13 13 12 11 11 11 10 10 11 13 13 10 7 6 6 7 7 6 7 7 7 8 7 7 7 8 7 6 5 6 5 3 3 4 4 6 6 4 4 5 4 3 5 7 7 8 8 10 12 13 13 13 12 13 15 16 16 17 18 19 20 20 21 21 21 22 22 23 24 25 25 26 27 27 28 29 29 30 30 31
16 14 13 13 12 12 13 13 13 12 12 11 10 10 12 14 12 9 7 6 6 7 7 7 7 7 7 7 8 8 9 10 8 5 4 5 4 6 7 6 6 7 6 4 5 5 4 5 8 9 10 10 11 12 14 15 15 16 17 19 20 20 20 20 21 21 21 21 21 21 21 21 21 22 23 23 24 25 25 26 27 27 28 29 30
18 17 15 15 14 13 12 13 14 13 12 12 12 11 11 13 12 10 9 8 7 7 8 8 8 8 7 6 7 7 9 12 10 7 5 6 8 10 11 10 8 7 8 7 8 7 6 4 6 7 8 10 11 12 14 16 17 18 20 21 21 22 22 22 22 22 22 23 23 23 22 21 20 20 21 22 22 23 24 24 25 26 27 27 28
21 19 18 17 18 17 15 14 14 14 13 12 12 12 12 12 12 11 10 10 9 8 7 8 8 8 8 7 7 6 7 10 11 10 9 10 11 11 11 10 8 7 7 7 7 7 9 8 6 6 5 8 11 13 15 16 18 19 22 23 23 23 24 25 25 25 25 25 25 24 22 21 21 21 22 23 23 24 24 25 25 26 27 28 28
23 21 20 19 20 20 19 16 15 15 14 13 13 12 12 12 12 12 11 11 10 8 8 8 8 9 9 8 8 7 7 8 10 11 10 9 9 9 8 7 7 6 6 6 6 6 9 10 10 9 9 10 13 15 17 18 19 20 22 23 24 25 26 26 26 26 26 25 24 22 21 21 21 21 22 23 24 24 24 25 25 26 26 27 28
26 23 22 21 21 21 22 20 18 16 15 14 14 13 13 12 12 12 12 12 11 10 9 9 9 9 10 9 9 8 8 9 9 10 9 8 7 7 6 5 5 5 5 7 7 6 7 9 11 10 11 13 15 16 18 18 18 19 21 23 25 26 26 26 26 25 23 21 20 20 20 21 21 22 24 24 25 25 25 25 25 25 25 25 25
28 26 25 24 22 21 22 21 20 18 17 15 15 15 15 14 13 13 13 13 12 11 11 11 10 10 10 10 10 10 11 10 10 10 11 10 9 7 6 5 5 5 6 7 9 9 8 9 11 11 11 13 15 15 16 17 18 19 21 22 24 25 25 24 23 21 19 18 19 20 22 24 25 26 26 26 26 27 27 27 25 24 23 22 23
31 29 28 27 26 24 23 22 21 20 19 18 17 16 16 16 16 15 14 14 13 13 13 12 11 11 11 11 11 11 12 12 11 11 12 11 10 9 7 6 6 7 9 9 11 12 10 10 11 12 11 13 15 15 16 18 18 19 20 21 21 21 20 19 19 18 18 19 21 24 26 28 28 27 28 28 28 28 27 25 23 21 20 20 20
33 31 30 29 29 28 27 25 24 22 21 20 19 18 17 17 18 17 17 15 14 13 13 13 12 11 12 11 11 11 11 12 12 11 11 11 11 10 9 9 10 10 11 12 13 14 14 13 14 14 14 15 16 15 15 17 18 19 20 20 19 18 17 17 18 19 20 22 25 27 29 29 28 28 29 29 27 25 23 22 20 19 18 16 15
35 33 31 30 30 30 30 29 27 25 23 22 21 21 19 18 18 18 18 18 16 15 13 13 14 13 13 13 12 12 12 12 13 13 13 12 11 12 11 12 13 13 13 13 14 15 17 19 18 17 17 17 17 16 17 18 19 20 20 21 21 20 20 19 20 21 22 24 27 29 29 28 28 29 29 26 23 22 21 20 18 15 14 13 12
37 35 34 32 32 32 32 31 30 28 26 24 23 23 22 21 19 18 18 18 18 17 15 14 14 15 15 15 14 14 14 14 14 14 14 13 12 13 14 15 16 16 16 16 16 17 19 22 21 19 18 18 18 18 19 21 23 23 23 23 23 22 22 22 23 24 24 26 29 29 28 27 28 27 24 22 22 21 20 18 16 15 16 17 17
38 37 36 35 34 33 33 32 31 30 28 27 25 24 24 23 22 20 19 18 18 18 18 16 15 15 16 16 15 15 16 16 16 15 15 14 14 14 15 15 16 17 18 18 18 19 20 20 20 20 18 18 20 21 21 22 24 26 26 25 23 23 24 25 27 26 26 28 30 28 27 27 26 23 21 21 21 19 18 18 18 19 19 20 21
40 39 38 37 36 34 34 33 32 31 30 29 28 26 25 25 24 23 21 20 19 19 18 18 17 16 16 16 16 16 17 17 17 17 16 16 16 16 16 15 15 17 18 18 17 18 19 19 19 20 20 20 22 23 23 23 25 26 25 26 25 24 26 29 29 28 29 31 29 27 27 25 21 20 21 21 20 19 20 21 21 21 21 21 22
41 40 40 38 37 35 34 34 33 32 31 31 30 29 28 27 26 25 24 22 21 20 20 19 19 18 17 17 17 17 17 17 17 17 18 18 17 17 17 16 16 16 17 17 16 17 18 19 19 20 22 23 24 24 24 25 26 25 24 24 25 26 28 30 30 31 32 31 27 25 26 22 18 20 22 20 20 21 22 22 22 22 21 21 20
41 41 41 40 38 37 35 34 33 33 33 32 32 31 30 29 28 27 26 25 23 22 21 20 20 19 18 18 18 18 18 18 18 18 19 19 19 18 18 17 17 17 17 16 16 16 17 19 20 21 23 25 24 25 26 26 26 26 25 24 25 27 29 30 30 31 31 29 25 23 23 20 19 20 20 19 19 21 23 24 23 21 19 17 17
41 41 41 41 40 38 37 35 34 34 34 33 33 32 31 30 30 29 28 27 26 24 23 22 21 20 19 19 18 18 19 19 18 17 17 17 18 18 18 18 18 18 18 17 17 17 18 20 22 22 24 26 25 25 26 26 27 27 26 26 27 28 29 29 27 25 25 26 27 23 21 20 20 19 18 18 19 21 24 25 22 18 16 17 19
41 40 40 41 41 40 38 37 36 35 34 33 32 32 32 31 31 30 30 29 27 27 25 24 23 21 20 20 19 19 19 19 19 17 16 16 16 17 18 18 18 18 19 19 19 20 21 22 23 24 26 27 25 25 26 26 26 26 27 28 29 28 28 28 25 22 22 26 28 25 20 19 20 19 18 19 20 21 25 24 19 16 19 21 22
42 40 39 40 41 41 39 38 37 35 34 32 30 30 31 31 31 31 30 29 29 28 28 26 25 23 22 21 20 20 19 19 21 21 20 19 19 19 19 18 19 20 20 21 22 22 23 24 25 25 26 27 26 25 24 24 25 26 27 28 27 25 24 24 24 22 22 24 26 24 20 19 20 20 19 21 22 23 24 21 18 19 21 22 24
43 41 40 39 40 41 40 39 37 35 33 31 29 29 29 29 29 29 30 30 30 29 29 28 27 26 25 24 23 22 21 19 21 23 24 24 24 23 22 21 21 22 22 22 22 22 23 24 25 26 25 25 25 24 22 21 23 25 25 25 24 23 22 22 23 24 23 22 22 22 21 20 21 21 21 22 24 25 23 19 18 20 22 22 24
44 43 41 39 39 40 41 39 37 36 34 31 29 27 27 26 27 28 29 29 30 30 30 29 29 28 27 26 25 24 23 22 22 23 24 24 25 25 24 24 23 22 21 21 22 22 23 24 25 25 23 21 22 23 20 19 21 22 23 23 22 22 23 23 24 26 24 20 20 22 22 21 22 22 22 23 25 25 21 17 18 20 22 23 23
45 44 43 41 39 39 40 40 38 36 35 33 29 27 25 24 24 25 27 28 29 29 29 29 29 29 28 27 26 25 25 25 25 25 25 25 25 25 25 25 24 22 22 22 22 23 23 24 24 24 22 19 20 22 20 19 20 21 21 22 21 22 23 24 25 26 22 18 19 22 22 22 22 22 22 23 24 22 18 16 19 21 22 22 21
46 45 44 43 41 39 39 40 39 37 36 33 31 28 25 23 22 22 24 26 27 28 28 29 29 29 28 28 27 26 26 25 24 25 26 27 27 28 28 27 26 25 24 23 22 23 24 24 23 23 22 20 19 20 20 20 20 20 21 22 22 23 24 25 27 25 20 19 19 20 22 23 23 22 23 23 22 19 17 17 20 21 21 21 20
47 47 46 44 43 41 39 41 41 39 36 34 32 30 27 25 23 22 22 23 24 25 27 29 30 30 29 28 28 27 27 26 24 23 23 26 29 30 31 30 29 28 27 24 24 24 25 24 24 23 23 22 20 20 21 21 21 22 23 23 23 23 24 26 26 23 20 20 20 20 22 23 22 23 25 25 21 17 16 19 22 21 21 20 20
48 48 47 45 44 43 41 40 41 41 39 36 33 31 29 27 26 25 23 23 23 24 25 27 30 31 31 30 29 29 28 27 26 24 23 24 26 29 30 30 30 30 28 25 25 25 25 25 25 25 25 22 21 21 21 22 22 23 24 24 24 24 25 25 25 24 22 21 22 23 23 22 22 23 25 25 21 15 16 20 22 22 21 21 21
48 47 46 45 45 44 43 41 40 41 41 40 36 33 30 29 28 27 25 25 25 24 24 26 29 31 32 33 32 32 31 30 29 28 27 26 26 27 28 29 31 31 28 26 26 26 27 27 27 27 25 22 20 21 22 22 23 24 24 24 24 24 25 25 25 24 23 22 23 24 22 20 22 23 23 24 21 17 19 22 23 22 22 22 23
Wind_Direction
118 119 120 121 118 116 117 119 118 119 122 120 116 120 122 118 111 108 104 95 97 96 90 81 79 96 101 94 89 84 85 83 79 83 89 95 96 97 98 98 100 101 103 105 106 107 106 104 104 106 105 104 102 101 101 98 95 93 91 93 93 87 77 63 47 29 18 14 9 6 3 359 0 4 6 5 3 3 8 13 9 9 18 21 24
120 118 121 126 127 124 122 124 126 125 128 127 121 126 128 119 115 116 114 104 99 91 84 76 72 81 87 89 86 80 86 84 76 75 81 92 95 98 100 97 98 101 104 107 110 109 108 110 109 109 108 105 103 99 97 94 93 96 96 99 99 93 81 62 39 23 14 12 5 2 0 355 359 5 4 3 2 7 14 17 18 20 25 27 26
122 123 126 128 132 133 131 132 133 130 128 130 126 130 128 121 123 123 124 124 119 117 115 96 75 73 62 65 82 94 93 86 76 67 69 88 94 97 101 99 101 103 107 109 113 114 109 110 110 110 114 115 114 108 102 97 93 95 99 101 103 95 63 38 21 15 9 3 1 358 355 354 0 3 358 1 7 16 22 23 26 27 28 31 28
127 128 133 133 134 133 134 135 135 130 125 129 131 134 136 135 138 135 133 131 128 126 130 151 125 90 74 56 76 109 104 96 83 66 66 81 84 89 96 96 103 105 108 111 111 114 112 107 101 102 112 111 111 108 102 97 91 85 93 86 83 82 35 20 11 7 357 351 355 352 350 354 1 2 359 8 19 26 30 29 31 31 32 33 31
133 134 139 135 131 129 130 128 127 129 131 142 145 150 156 149 144 140 133 130 130 123 121 144 156 138 112 87 97 111 109 103 87 68 65 65 64 73 80 80 95 107 110 114 115 117 113 108 93 77 80 80 77 86 87 84 80 58 56 44 26 17 7 9 359 352 344 340 345 347 351 359 6 13 16 22 29 30 31 32 34 36 37 37 36
138 139 137 132 128 127 127 123 128 138 140 144 150 159 163 152 146 144 137 133 133 123 121 138 147 155 139 118 124 128 135 124 84 83 66 51 54 56 58 64 72 93 106 107 110 122 117 102 87 70 59 69 68 69 76 71 57 44 26 346 332 331 343 348 337 334 333 336 343 353 3 9 17 24 26 26 29 29 29 31 36 42 44 42 40
144 139 135 135 131 130 130 133 138 142 139 138 146 154 154 154 151 149 145 139 137 132 134 138 135 141 140 123 117 123 140 161 91 94 74 45 60 56 50 53 59 81 95 94 90 100 124 101 74 75 67 63 72 66 72 64 44 14 303 297 308 313 318 327 325 327 331 338 353 10 18 20 26 28 26 26 26 27 28 35 44 49 50 43 37
147 141 138 138 133 134 136 139 141 138 139 139 140 141 142 153 151 149 149 142 142 138 136 139 135 137 139 127 121 122 140 160 158 123 80 68 69 60 49 52 70 82 78 73 71 70 79 91 68 69 70 48 60 68 71 61 24 312 284 289 307 318 315 322 328 329 334 352 17 27 30 29 30 27 27 28 26 28 33 43 54 56 49 36 27
146 142 142 139 136 141 139 138 139 134 137 137 134 135 139 147 145 150 153 143 140 135 132 138 144 153 146 129 130 137 145 149 162 174 78 66 70 66 51 49 57 63 67 59 55 55 53 70 80 77 78 64 59 64 66 57 21 356 338 327 330 337 334 337 345 350 0 23 36 38 37 33 31 34 38 37 37 38 46 55 58 53 35 20 16
149 147 144 139 140 142 135 137 136 131 135 133 130 135 141 145 144 150 150 137 134 137 138 135 147 166 155 136 134 146 151 147 148 166 190 307 44 73 64 45 43 55 80 66 45 38 24 25 86 80 78 69 64 61 50 48 35 20 16 0 353 8 22 33 39 47 47 43 43 46 44 46 47 54 57 54 55 56 60 64 52 35 19 11 10
152 152 146 139 142 139 134 136 134 131 132 127 125 132 140 142 142 147 145 139 137 139 137 110 114 147 149 148 155 152 157 154 146 152 186 238 265 111 86 39 39 55 68 63 47 24 10 10 115 83 75 71 66 56 39 38 35 25 31 32 34 50 60 65 63 64 62 55 59 64 65 74 74 72 71 67 68 69 64 57 38 18 10 8 8
156 156 149 143 144 140 138 137 133 134 131 123 124 129 137 143 145 148 147 146 146 144 141 120 116 133 130 132 153 149 149 147 142 142 152 190 217 210 139 41 38 48 31 40 50 20 20 64 103 80 72 73 65 52 47 58 55 51 55 55 56 59 65 67 66 69 70 70 71 77 81 82 79 74 71 66 62 57 48 34 20 6 1 2 3
159 155 151 148 147 143 140 137 133 132 127 126 127 126 130 137 142 150 151 150 148 150 154 147 141 141 126 114 120 124 138 139 135 132 131 151 176 194 190 37 36 37 5 34 54 31 33 56 60 56 64 67 64 66 75 76 65 61 62 62 62 59 62 64 64 68 70 70 67 61 63 57 56 53 42 37 32 26 17 5 357 350 348 349 349
154 150 149 147 145 145 141 137 135 127 123 128 128 126 124 126 134 143 151 152 148 152 157 151 150 153 142 132 129 126 142 150 149 154 152 148 164 181 198 216 17 22 16 42 60 35 20 34 35 37 53 61 68 81 78 71 66 64 65 65 63 59 58 55 52 55 50 50 46 36 32 20 11 7 358 354 350 346 341 332 330 329 329 330 330
153 148 148 144 141 144 141 140 137 124 122 127 124 123 124 126 132 138 148 150 146 147 145 140 141 149 157 157 156 152 161 171 172 182 193 173 163 166 192 216 296 19 24 46 54 4 5 23 23 20 36 53 67 81 74 71 71 66 67 66 62 54 48 43 36 36 31 25 21 16 10 3 353 347 340 337 333 327 325 319 316 315 314 316 316
158 151 149 150 147 142 139 139 132 121 118 120 121 124 129 131 130 137 150 146 147 150 145 147 148 156 170 171 171 175 174 171 172 185 200 208 186 163 191 223 243 0 31 55 341 359 16 19 15 8 19 32 53 74 72 75 76 74 67 57 52 44 32 27 20 17 16 9 5 2 356 352 346 340 336 331 328 323 320 316 312 312 310 309 308
164 159 155 160 155 144 143 141 132 126 120 117 120 124 126 126 125 136 149 141 145 157 154 156 159 165 173 168 172 189 188 166 169 185 200 219 209 183 200 243 241 279 1 56 354 12 30 24 18 8 5 15 30 54 67 80 73 74 63 46 35 31 24 16 11 5 3 357 352 350 345 342 338 334 330 325 323 319 316 315 312 311 310 308 305
168 167 163 164 159 149 150 145 136 136 130 123 121 122 121 122 126 126 128 133 141 155 160 164 168 168 161 136 126 145 120 170 185 191 185 192 195 193 223 291 228 247 318 41 23 17 22 16 17 10 7 18 18 33 70 100 70 64 51 38 28 21 18 11 8 2 357 351 344 341 336 334 331 326 324 320 318 315 313 313 311 309 307 306 304
171 172 169 165 165 161 158 153 145 142 140 138 126 123 123 118 126 121 116 134 144 145 151 155 160 159 150 116 100 98 86 157 182 184 177 162 167 186 226 275 236 243 289 348 302 328 12 6 6 12 26 38 22 28 62 78 67 63 47 34 25 17 13 8 3 357 350 343 337 334 330 327 324 321 319 316 314 313 312 311 309 308 306 304 303
175 175 173 167 170 171 167 165 160 152 149 158 144 130 125 112 115 114 110 134 143 142 141 139 147 152 154 150 154 167 123 133 156 160 159 143 153 171 212 244 233 253 287 335 301 287 351 354 352 3 16 26 21 24 46 62 65 62 56 38 22 10 4 358 352 345 339 333 329 327 324 322 320 317 316 314 313 312 311 310 309 308 306 305 303
183 179 180 173 172 175 175 173 171 162 148 151 146 127 117 102 108 107 109 139 143 149 149 146 154 157 163 175 170 166 149 124 135 152 148 136 153 166 127 148 158 113 243 330 336 295 334 339 332 341 355 9 14 18 29 42 54 51 50 36 14 1 352 345 340 334 329 327 324 323 321 319 317 316 314 313 312 312 311 310 309 308 307 306 305
192 189 187 182 178 178 179 178 178 174 153 136 131 126 113 40 113 130 137 143 143 155 158 154 159 159 167 178 174 163 152 138 133 146 148 151 169 178 87 136 161 152 188 250 304 293 305 314 318 328 340 352 359 7 11 16 33 38 26 12 356 348 343 337 333 329 325 324 322 321 320 319 317 315 314 313 311 310 309 308 307 306 306 305 305
196 197 191 187 185 182 181 181 182 185 169 150 159 215 226 247 136 165 156 144 143 157 165 165 167 161 156 169 177 170 162 165 168 157 157 174 189 190 102 134 179 178 172 208 281 290 297 301 316 335 343 347 352 0 3 4 14 18 9 354 339 336 335 330 327 324 322 321 320 320 320 319 318 317 316 315 312 310 309 307 306 305 304 304 303
200 202 195 192 189 185 187 186 187 190 177 166 180 201 212 238 230 181 168 155 153 159 165 169 173 171 150 151 164 160 159 169 167 168 191 210 210 204 177 140 174 185 192 214 248 273 288 287 293 321 338 357 3 4 4 359 359 358 352 340 330 328 326 323 321 320 321 321 321 320 320 319 319 318 317 316 314 312 310 308 307 305 304 303 302
198 200 200 199 195 192 193 192 191 190 182 178 183 187 199 228 232 196 178 169 163 161 159 160 165 174 171 159 155 137 135 153 155 173 215 218 191 198 190 195 210 205 212 233 258 274 280 284 283 294 314 343 360 1 358 354 352 345 333 324 322 320 319 318 319 321 322 321 321 320 319 319 318 318 317 316 315 313 311 310 308 306 305 303 302
200 199 201 202 202 199 198 199 195 189 188 189 186 183 189 207 217 205 187 173 169 170 165 163 163 172 183 179 168 147 141 156 166 200 246 254 187 191 191 212 234 229 227 249 262 272 271 266 272 286 299 317 338 346 345 343 340 333 323 317 316 316 318 320 320 321 321 320 319 318 317 317 317 317 316 314 313 312 311 309 308 306 305 303 302
209 208 206 205 206 202 200 203 203 196 195 197 195 189 189 198 210 214 204 182 176 182 181 178 173 173 181 184 184 180 173 186 206 225 261 266 229 216 218 226 237 225 222 244 235 238 265 250 249 279 301 311 320 325 328 332 329 323 317 313 314 316 318 319 320 319 319 319 319 319 318 317 316 315 313 312 311 310 310 308 307 306 305 304 303
214 214 214 214 213 207 199 200 207 210 205 204 206 202 194 201 213 220 220 209 192 190 191 193 189 178 182 188 190 192 187 188 195 207 250 252 223 234 246 250 245 221 213 225 218 224 253 250 250 270 288 293 300 309 315 321 322 318 314 312 314 317 319 320 321 321 322 324 325 325 323 320 318 316 315 314 312 312 311 309 308 307 306 306 305
214 215 215 216 218 218 210 202 206 213 212 209 211 212 206 206 214 216 214 219 219 206 197 199 202 192 189 195 200 200 189 187 190 190 201 219 231 246 255 262 257 229 216 221 224 223 215 218 250 265 277 283 288 300 307 312 316 314 311 313 316 320 323 324 325 326 327 329 330 329 326 322 320 320 319 319 318 316 314 312 310 309 308 307 306
218 217 216 213 214 220 222 216 211 212 213 213 213 217 216 211 214 215 209 214 224 221 206 202 207 204 193 195 206 208 196 194 196 200 210 223 233 243 252 256 249 232 224 228 231 224 207 206 237 255 265 272 277 287 297 303 307 307 308 313 318 322 325 325 327 330 331 331 332 331 329 327 326 327 327 326 325 322 320 318 315 313 311 309 308
224 222 219 215 212 216 222 224 220 216 215 214 213 219 221 216 215 216 212 214 220 223 217 210 214 215 203 199 208 211 211 208 195 196 215 230 234 243 251 247 232 221 229 238 240 223 208 214 231 248 263 269 275 285 292 298 302 305 309 315 321 323 323 324 327 329 331 332 333 334 335 334 333 332 331 329 328 326 325 323 321 318 315 312 310
227 223 222 222 217 215 219 223 224 222 220 217 216 219 223 224 220 218 218 218 218 221 224 221 219 221 217 215 217 216 220 220 201 196 215 230 232 236 250 257 244 233 241 252 254 238 221 228 237 248 266 276 281 289 295 301 307 310 314 318 321 321 321 322 325 327 330 334 337 339 340 338 335 332 330 329 328 328 328 327 326 322 319 316 313
228 222 220 223 225 222 220 222 225 226 225 224 224 223 224 226 223 221 221 221 221 221 224 227 225 226 226 222 222 224 226 228 219 209 216 230 238 239 246 266 273 270 269 269 269 260 240 240 253 262 273 282 288 295 303 309 314 316 316 318 319 318 319 321 324 329 333 336 341 342 340 338 335 334 334 334 333 333 331 329 328 326 323 320 317
231 226 220 219 224 226 225 225 228 229 228 227 228 229 229 227 224 223 223 224 225 222 223 228 228 231 234 230 228 228 228 231 231 223 222 230 241 244 247 266 281 286 285 282 282 279 267 261 273 283 292 298 301 307 312 313 316 317 318 320 320 319 320 323 328 335 338 340 342 341 339 337 336 337 338 339 338 336 333 331 330 328 325 322 319
231 231 226 221 222 226 228 230 231 232 232 229 228 231 233 230 226 224 224 226 229 225 223 226 229 233 237 238 239 237 234 233 233 234 232 231 235 238 246 261 270 277 283 283 285 290 290 290 293 298 305 309 308 312 315 315 316 316 318 325 329 329 331 332 333 336 340 342 341 338 336 335 336 339 341 341 340 338 336 333 331 327 325 324 319
230 231 230 226 224 225 228 231 233 233 234 232 231 232 234 234 230 226 224 226 231 233 228 225 227 232 238 241 243 243 242 239 237 239 239 236 234 234 238 249 259 266 273 278 283 291 295 296 298 303 309 311 311 315 319 320 321 322 325 332 337 338 338 335 332 334 338 339 337 334 333 335 339 341 341 341 341 340 338 336 337 339 344 349 347
230 230 230 229 227 225 227 231 234 234 234 234 234 234 235 236 236 233 228 226 230 234 235 232 228 230 236 243 245 244 244 244 244 244 245 244 241 239 238 239 247 256 262 269 275 278 283 288 296 303 308 310 311 316 322 323 325 328 331 334 337 337 334 332 332 334 334 332 331 331 333 337 340 340 340 342 341 341 343 349 359 9 13 13 9
229 229 230 230 228 227 227 230 233 235 235 234 234 235 236 237 239 239 236 233 231 233 236 238 237 233 234 240 244 245 246 246 248 249 250 252 250 249 247 242 242 248 253 260 267 271 277 284 293 299 304 309 311 318 326 326 324 327 331 334 335 331 328 329 331 329 326 325 327 330 334 337 338 340 344 345 344 348 356 7 16 19 16 12 5
228 228 228 229 229 229 229 230 232 234 235 234 233 233 235 237 240 241 240 239 237 237 238 240 241 239 237 239 243 245 247 248 249 251 253 254 255 255 254 251 250 250 253 259 267 274 281 285 290 296 303 308 310 317 326 326 322 325 329 330 329 325 323 326 326 322 320 322 326 331 336 338 341 344 347 348 351 1 10 15 17 16 12 8 2
227 227 227 228 229 230 231 231 232 233 233 233 233 232 233 235 238 240 242 242 241 242 243 242 243 242 241 240 241 244 248 250 252 254 256 256 256 257 256 255 256 256 257 261 266 272 277 282 289 294 300 305 308 315 321 321 320 324 326 324 320 317 318 320 319 316 317 321 327 336 341 344 350 350 349 352 359 8 15 15 14 15 13 9 3
227 227 226 227 228 229 231 232 232 232 232 232 232 233 232 233 236 239 240 242 243 244 245 246 245 244 243 242 240 240 243 247 251 255 258 258 257 258 258 257 258 259 260 261 263 267 272 279 286 291 295 300 306 312 317 319 320 321 321 317 311 310 312 315 314 314 317 323 329 340 349 349 351 352 351 354 2 11 14 13 15 18 14 5 357
228 227 224 224 225 227 229 231 232 232 232 233 233 234 234 234 236 238 239 240 242 244 246 248 247 246 246 245 245 243 240 241 245 251 256 256 256 257 257 257 258 260 262 263 264 267 272 277 284 290 292 296 304 311 314 318 319 315 311 307 305 307 310 312 313 316 322 324 327 340 352 348 346 352 354 356 5 12 12 12 16 13 359 351 350
227 226 224 222 222 224 227 229 231 232 233 234 235 235 235 236 236 238 240 241 242 243 245 248 250 252 251 250 251 250 244 239 240 247 255 257 256 256 257 256 257 258 262 266 267 270 273 277 283 287 288 293 303 309 309 313 315 310 304 301 303 308 309 309 312 320 326 325 325 335 348 346 345 353 358 1 7 10 10 11 7 355 349 349 346
225 225 224 221 219 222 225 228 231 233 234 235 237 236 236 236 236 237 239 241 242 243 245 248 251 254 255 255 256 255 250 242 238 244 252 255 257 259 260 259 258 261 263 266 269 271 272 275 280 283 286 292 301 305 306 309 308 304 301 299 302 305 304 305 311 318 324 324 323 330 343 347 349 353 359 3 5 7 7 4 354 348 350 346 337
223 225 225 222 218 219 223 226 229 232 234 235 237 237 236 236 236 236 237 239 241 243 245 247 250 252 254 256 256 256 254 247 241 240 243 247 251 256 259 261 261 263 264 265 267 269 270 272 275 280 286 292 296 301 306 305 300 297 296 296 299 302 303 307 310 313 320 324 325 331 342 349 348 351 357 360 1 3 2 355 350 352 347 338 334
221 223 224 223 219 217 221 226 228 231 234 236 237 238 237 237 236 236 236 237 239 241 244 246 249 251 253 254 256 256 255 252 247 244 243 244 247 250 255 258 260 262 263 264 267 270 271 272 274 279 286 289 291 299 304 299 293 293 293 295 300 304 306 309 309 310 318 328 333 334 340 346 345 346 350 353 355 358 355 350 353 353 344 339 342
220 222 223 223 221 217 218 223 228 231 234 237 238 239 239 237 235 234 236 237 237 239 242 245 247 249 251 253 255 256 255 252 249 247 247 247 249 251 255 259 262 265 266 266 268 271 274 275 275 279 284 286 290 296 298 294 290 291 293 296 301 305 306 306 307 311 322 334 336 333 334 338 339 337 340 348 353 354 353 353 355 352 347 347 350
218 221 223 223 223 220 217 220 225 230 233 236 238 239 241 239 236 233 235 237 238 239 240 241 243 246 248 250 252 253 254 253 250 247 245 245 247 250 255 260 264 267 268 269 272 274 276 278 278 280 285 289 291 292 292 291 289 290 292 294 299 303 303 304 308 315 326 332 330 328 327 329 329 327 331 343 352 354 354 355 355 353 351 351 351
216 219 221 223 223 223 220 218 221 226 230 234 237 238 240 241 237 234 233 235 236 237 239 240 241 243 245 246 249 251 254 256 255 251 245 243 244 247 252 257 262 265 268 271 273 275 278 280 282 285 287 288 285 284 287 288 288 289 290 292 297 300 301 305 311 317 323 325 324 326 325 323 323 324 329 340 351 357 355 353 354 355 355 353 350
216 218 220 222 223 224 224 221 221 223 226 231 234 236 238 238 238 237 236 235 235 235 236 238 239 241 242 244 246 250 254 258 259 258 254 249 246 248 251 255 260 264 268 272 276 278 280 283 284 285 285 284 281 280 284 286 287 288 289 293 298 300 303 309 313 313 317 320 321 323 324 321 322 327 333 341 349 356 356 353 352 354 355 351 348
216 217 219 220 222 223 225 226 225 224 224 226 230 232 235 235 236 237 237 236 236 237 239 239 238 238 240 243 245 248 253 257 259 260 260 256 254 253 253 255 259 264 270 275 279 281 283 284 284 284 284 282 279 278 281 284 286 288 291 295 299 303 307 312 312 312 316 320 320 323 326 326 329 333 338 343 347 347 348 351 353 354 352 347 345
Height
1588 1588 1589 1590 1591 1592 1593 1594 1595 1595 1596 1597 1597 1598 1599 1599 1599 1599 1599 1600 1601 1602 1602 1603 1603 1604 1604 1604 1604 1604 1604 1605 1605 1605 1605 1605 1605 1605 1605 1606 1606 1606 1607 1607 1607 1607 1607 1607 1607 1607 1607 1607 1607 1607 1607 1607 1607 1607 1607 1607 1607 1606 1606 1606 1605 1605 1604 1603 1603 1602 1601 1601 1600 1599 1598 1598 1597 1596 1595 1595 1594 1593 1592 1591 1591
1588 1589 1590 1591 1592 1593 1594 1595 1595 1596 1596 1597 1598 1598 1599 1600 1600 1600 1600 1600 1601 1602 1602 1603 1603 1604 1605 1605 1604 1605 1605 1606 1606 1606 1606 1606 1606 1606 1606 1607 1607 1607 1607 1607 1608 1608 1608 1608 1608 1608 1608 1608 1608 1608 1608 1608 1608 1608 1607 1607 1607 1607 1606 1606 1605 1604 1604 1603 1602 1602 1601 1600 1599 1599 1598 1597 1597 1596 1595 1594 1594 1593 1592 1591 1591
1589 1590 1591 1591 1592 1593 1594 1595 1596 1596 1597 1597 1598 1599 1600 1600 1600 1601 1601 1601 1602 1603 1603 1603 1604 1604 1605 1604 1605 1605 1606 1606 1607 1607 1607 1607 1607 1607 1607 1608 1608 1608 1608 1608 1608 1608 1609 1609 1609 1608 1608 1608 1608 1608 1608 1608 1608 1608 1607 1607 1607 1607 1606 1605 1605 1604 1603 1603 1602 1601 1601 1600 1599 1598 1598 1597 1596 1596 1595 1594 1594 1593 1592 1591 1591
1589 1590 1591 1592 1592 1593 1594 1595 1596 1596 1597 1598 1598 1599 1600 1600 1601 1602 1602 1603 1603 1604 1605 1605 1605 1605 1605 1605 1606 1606 1606 1607 1607 1608 1608 1608 1608 1608 1608 1608 1608 1608 1609 1609 1609 1609 1609 1609 1609 1609 1609 1609 1609 1609 1609 1608 1608 1608 1607 1607 1607 1606 1606 1605 1604 1604 1603 1602 1602 1601 1600 1600 1599 1598 1598 1597 1596 1596 1595 1595 1594 1593 1592 1591 1591
1589 1590 1591 1592 1592 1593 1594 1595 1596 1596 1597 1597 1598 1599 1600 1601 1602 1602 1603 1603 1604 1604 1606 1606 1606 1606 1607 1607 1606 1606 1606 1607 1608 1608 1609 1609 1609 1609 1609 1609 1609 1609 1609 1609 1609 1609 1609 1609 1609 1609 1609 1609 1609 1609 1609 1608 1608 1608 1607 1607 1606 1606 1605 1605 1604 1603 1603 1602 1601 1601 1600 1599 1599 1598 1598 1597 1597 1596 1595 1595 1594 1593 1592 1592 1591
1589 1590 1591 1592 1592 1593 1594 1595 1596 1596 1597 1597 1598 1599 1600 1601 1602 1603 1603 1604 1604 1605 1606 1607 1607 1608 1608 1608 1607 1607 1607 1608 1608 1609 1609 1609 1609 1609 1609 1609 1609 1609 1609 1609 1609 1609 1609 1609 1609 1609 1609 1609 1609 1609 1608 1608 1608 1607 1607 1606 1606 1605 1605 1604 1604 1603 1602 1602 1601 1600 1600 1599 1599 1598 1598 1597 1597 1596 1595 1595 1594 1593 1592 1592 1591
1590 1591 1591 1592 1593 1594 1595 1595 1596 1597 1597 1598 1599 1599 1600 1601 1602 1603 1604 1604 1605 1605 1606 1607 1608 1608 1609 1609 1608 1608 1608 1608 1609 1609 1610 1610 1610 1610 1610 1610 1609 1609 1609 1609 1609 1609 1609 1609 1609 1609 1609 1609 1609 1608 1608 1608 1607 1607 1607 1606 1606 1605 1605 1604 1603 1603 1602 1601 1601 1600 1600 1599 1599 1598 1598 1597 1597 1596 1596 1595 1594 1593 1593 1592 1592
1590 1591 1592 1593 1593 1594 1595 1596 1597 1597 1598 1598 1599 1600 1600 1601 1602 1603 1604 1604 1605 1605 1606 1607 1608 1609 1609 1609 1609 1609 1610 1609 1609 1610 1610 1610 1611 1610 1610 1610 1610 1610 1610 1609 1609 1609 1609 1609 1609 1609 1609 1609 1608 1608 1608 1607 1607 1606 1606 1606 1605 1605 1604 1603 1603 1602 1602 1601 1601 1600 1600 1599 1599 1598 1598 1597 1597 1596 1596 1595 1594 1594 1593 1593 1592
1591 1592 1593 1593 1594 1595 1596 1596 1597 1598 1598 1599 1599 1600 1600 1601 1602 1602 1603 1604 1605 1606 1606 1607 1609 1609 1610 1610 1609 1610 1610 1610 1610 1610 1610 1610 1611 1611 1611 1611 1610 1610 1610 1610 1610 1609 1609 1609 1609 1609 1609 1608 1608 1608 1608 1607 1607 1606 1606 1605 1605 1604 1604 1603 1602 1602 1601 1601 1601 1600 1600 1599 1599 1599 1598 1598 1597 1596 1596 1595 1595 1594 1594 1593 1592
1592 1592 1593 1594 1594 1595 1596 1597 1597 1598 1598 1599 1600 1600 1600 1601 1602 1602 1603 1604 1605 1606 1607 1608 1608 1609 1610 1610 1610 1610 1611 1611 1611 1610 1610 1610 1610 1611 1611 1611 1611 1611 1610 1610 1610 1610 1610 1609 1609 1609 1609 1608 1608 1608 1607 1607 1606 1606 1606 1605 1604 1604 1603 1603 1602 1602 1601 1601 1601 1600 1600 1600 1599 1599 1598 1598 1597 1597 1596 1596 1595 1595 1594 1593 1593
1592 1593 1594 1594 1595 1595 1596 1597 1598 1598 1599 1599 1600 1600 1601 1602 1602 1603 1604 1604 1605 1606 1607 1608 1608 1608 1609 1609 1609 1610 1611 1611 1611 1611 1611 1610 1610 1611 1611 1611 1611 1611 1611 1611 1610 1610 1610 1609 1609 1609 1609 1608 1608 1607 1607 1607 1606 1606 1605 1605 1604 1603 1603 1602 1602 1602 1601 1601 1601 1600 1600 1600 1599 1599 1598 1598 1597 1597 1596 1596 1595 1595 1594 1594 1593
1592 1593 1594 1594 1595 1596 1596 1597 1598 1598 1599 1600 1600 1601 1601 1602 1602 1603 1604 1605 1605 1606 1607 1608 1608 1609 1609 1609 1610 1610 1611 1611 1611 1612 1612 1612 1611 1611 1611 1611 1611 1611 1611 1611 1611 1610 1610 1609 1609 1609 1608 1608 1607 1607 1607 1606 1606 1606 1605 1604 1604 1603 1603 1602 1602 1602 1601 1601 1601 1600 1600 1600 1599 1599 1598 1598 1597 1597 1596 1596 1595 1595 1594 1593 1593
1592 1593 1594 1595 1595 1596 1597 1598 1598 1598 1599 1600 1600 1601 1601 1602 1602 1603 1604 1605 1606 1606 1607 1607 1608 1609 1609 1609 1610 1610 1611 1611 1611 1612 1612 1613 1612 1611 1612 1611 1611 1611 1611 1611 1611 1611 1610 1610 1609 1609 1608 1607 1607 1607 1606 1606 1606 1605 1605 1604 1604 1604 1603 1603 1602 1602 1601 1601 1601 1600 1600 1600 1599 1599 1598 1598 1597 1597 1596 1596 1595 1595 1594 1593 1593
1592 1593 1594 1595 1595 1596 1597 1598 1598 1598 1599 1600 1601 1601 1601 1602 1603 1603 1604 1605 1605 1606 1606 1607 1608 1609 1609 1609 1610 1610 1611 1611 1611 1612 1612 1613 1613 1612 1612 1612 1611 1611 1611 1611 1611 1611 1610 1610 1609 1608 1608 1607 1607 1607 1606 1606 1606 1605 1605 1604 1604 1604 1603 1603 1602 1602 1601 1601 1601 1600 1600 1600 1599 1599 1598 1598 1597 1597 1596 1596 1595 1594 1594 1593 1592
1592 1593 1594 1595 1595 1596 1597 1598 1598 1599 1599 1600 1601 1601 1602 1602 1603 1604 1604 1605 1605 1605 1606 1607 1608 1608 1609 1609 1610 1610 1610 1611 1611 1611 1612 1612 1613 1613 1613 1612 1612 1612 1611 1611 1611 1610 1610 1609 1608 1608 1608 1607 1607 1607 1607 1606 1606 1605 1605 1605 1604 1604 1603 1603 1602 1602 1601 1601 1601 1600 1600 1600 1599 1599 1598 1598 1597 1597 1596 1595 1595 1594 1593 1593 1592
1592 1593 1594 1595 1595 1596 1597 1598 1598 1599 1599 1600 1601 1601 1602 1603 1603 1604 1604 1604 1604 1605 1606 1607 1607 1608 1608 1609 1610 1610 1610 1610 1610 1611 1612 1612 1612 1613 1612 1612 1612 1612 1612 1611 1610 1610 1609 1609 1608 1608 1608 1608 1608 1608 1607 1607 1606 1605 1605 1605 1604 1604 1603 1603 1602 1602 1601 1601 1601 1601 1600 1600 1599 1599 1598 1598 1597 1596 1596 1595 1594 1594 1593 1592 1592
1592 1593 1594 1595 1596 1596 1597 1598 1598 1599 1599 1600 1601 1601 1602 1603 1603 1603 1604 1604 1604 1605 1606 1606 1607 1607 1608 1609 1610 1610 1610 1610 1610 1611 1612 1612 1612 1613 1612 1612 1612 1612 1612 1611 1610 1609 1609 1609 1609 1608 1608 1608 1608 1608 1607 1607 1606 1605 1605 1604 1604 1603 1603 1603 1602 1602 1601 1601 1601 1601 1600 1600 1599 1599 1598 1597 1597 1596 1595 1594 1594 1593 1592 1592 1591
1592 1593 1594 1594 1595 1596 1596 1597 1598 1599 1599 1600 1601 1601 1602 1602 1603 1604 1604 1604 1604 1605 1605 1606 1606 1607 1608 1609 1609 1610 1610 1610 1610 1611 1611 1612 1612 1612 1612 1612 1612 1612 1611 1611 1610 1609 1610 1609 1609 1609 1609 1609 1608 1607 1607 1606 1606 1605 1605 1604 1604 1604 1603 1603 1602 1602 1602 1601 1601 1600 1600 1600 1599 1598 1598 1597 1596 1595 1595 1594 1593 1593 1592 1591 1590
1591 1592 1593 1594 1595 1596 1596 1597 1598 1599 1599 1600 1601 1601 1602 1603 1603 1604 1604 1604 1604 1605 1605 1606 1606 1607 1608 1608 1608 1609 1609 1609 1610 1610 1611 1612 1612 1612 1612 1612 1612 1612 1612 1611 1611 1610 1610 1610 1610 1610 1610 1609 1608 1607 1607 1606 1605 1605 1604 1604 1604 1604 1603 1603 1602 1602 1602 1601 1601 1600 1600 1600 1599 1598 1597 1596 1596 1595 1594 1594 1593 1592 1591 1590 1590
1590 1591 1592 1593 1594 1595 1596 1597 1597 1598 1599 1600 1600 1601 1602 1602 1603 1603 1603 1604 1604 1604 1605 1605 1606 1607 1607 1607 1608 1608 1609 1609 1610 1610 1610 1611 1611 1612 1612 1611 1611 1612 1612 1612 1611 1610 1610 1610 1610 1610 1610 1609 1608 1607 1606 1606 1606 1605 1605 1604 1604 1604 1603 1603 1602 1602 1601 1601 1601 1600 1600 1599 1599 1598 1597 1596 1595 1594 1594 1593 1592 1591 1590 1590 1589
1590 1591 1592 1593 1594 1595 1596 1596 1597 1598 1599 1600 1600 1601 1601 1602 1603 1603 1603 1604 1604 1604 1605 1605 1605 1606 1606 1607 1607 1608 1609 1609 1610 1610 1610 1610 1611 1611 1611 1611 1611 1612 1611 1611 1611 1610 1610 1610 1610 1610 1609 1609 1608 1607 1606 1606 1606 1605 1605 1604 1604 1603 1603 1603 1602 1602 1601 1601 1601 1600 1600 1599 1598 1597 1596 1595 1595 1594 1593 1592 1591 1590 1590 1589 1588
1589 1590 1591 1592 1593 1594 1595 1596 1597 1597 1598 1599 1600 1600 1601 1602 1602 1603 1603 1604 1604 1604 1604 1605 1605 1606 1606 1607 1607 1607 1608 1609 1609 1610 1610 1610 1610 1611 1611 1611 1612 1612 1612 1611 1611 1610 1610 1610 1609 1609 1609 1608 1608 1607 1606 1606 1606 1605 1605 1604 1604 1603 1603 1603 1602 1602 1601 1601 1600 1600 1599 1599 1598 1597 1596 1595 1594 1593 1592 1591 1590 1590 1589 1588 1587
1588 1589 1590 1591 1592 1594 1594 1595 1596 1597 1598 1599 1599 1600 1601 1602 1602 1603 1603 1603 1604 1604 1604 1604 1605 1605 1606 1606 1607 1607 1608 1608 1609 1609 1610 1610 1610 1611 1611 1611 1612 1612 1612 1611 1611 1610 1610 1610 1609 1609 1608 1608 1607 1607 1606 1606 1605 1605 1605 1604 1603 1603 1603 1603 1602 1602 1601 1601 1600 1600 1599 1598 1597 1596 1595 1594 1593 1592 1591 1590 1589 1588 1587 1587 1586
1588 1588 1589 1590 1591 1593 1594 1595 1596 1596 1597 1598 1599 1600 1601 1602 1602 1602 1603 1603 1603 1603 1604 1604 1604 1605 1605 1606 1606 1607 1607 1608 1609 1610 1610 1610 1610 1611 1611 1611 1611 1612 1612 1612 1611 1610 1610 1610 1609 1608 1608 1607 1607 1607 1606 1606 1605 1605 1605 1604 1603 1603 1603 1602 1602 1602 1601 1601 1600 1599 1599 1598 1597 1595 1594 1593 1592 1591 1590 1589 1588 1587 1586 1585 1584
1586 1587 1588 1590 1591 1592 1593 1594 1595 1596 1597 1598 1599 1600 1600 1601 1601 1602 1602 1602 1603 1603 1603 1604 1604 1604 1605 1605 1606 1606 1607 1608 1609 1609 1610 1610 1610 1610 1611 1611 1611 1611 1611 1611 1611 1610 1609 1609 1608 1608 1607 1607 1607 1606 1606 1606 1605 1605 1604 1604 1603 1603 1603 1602 1602 1601 1601 1600 1599 1599 1598 1597 1596 1595 1593 1592 1591 1589 1588 1587 1586 1585 1584 1583 1582
1585 1586 1587 1589 1590 1591 1592 1593 1594 1595 1596 1597 1598 1599 1600 1600 1600 1601 1601 1602 1602 1603 1603 1603 1603 1604 1604 1605 1606 1606 1607 1608 1609 1609 1609 1609 1610 1610 1610 1610 1610 1611 1610 1610 1610 1609 1608 1608 1607 1607 1607 1606 1606 1605 1605 1605 1605 1605 1604 1603 1603 1603 1602 1602 1601 1601 1600 1599 1598 1598 1597 1596 1594 1593 1592 1590 1589 1587 1586 1585 1584 1583 1582 1581 1580
1584 1585 1586 1587 1589 1590 1591 1592 1593 1594 1595 1596 1597 1598 1599 1599 1599 1600 1601 1601 1602 1602 1602 1602 1603 1603 1604 1604 1605 1606 1607 1607 1608 1608 1608 1608 1609 1609 1610 1610 1610 1610 1610 1609 1609 1608 1608 1607 1607 1607 1606 1605 1605 1605 1605 1605 1604 1604 1603 1602 1602 1602 1602 1601 1600 1600 1599 1598 1598 1597 1595 1594 1593 1591 1590 1588 1587 1586 1584 1583 1582 1580 1579 1578 1577
1583 1584 1585 1586 1587 1588 1590 1591 1591 1592 1593 1595 1596 1597 1598 1599 1599 1599 1600 1600 1601 1601 1602 1602 1602 1603 1603 1604 1604 1605 1606 1607 1607 1607 1607 1608 1608 1608 1609 1609 1609 1609 1609 1609 1608 1608 1607 1607 1606 1606 1605 1605 1605 1605 1605 1604 1604 1603 1602 1601 1601 1601 1600 1600 1599 1599 1598 1597 1596 1595 1594 1592 1590 1589 1587 1586 1585 1583 1582 1581 1579 1578 1576 1575 1574
1581 1583 1584 1585 1586 1587 1588 1589 1590 1591 1592 1593 1595 1595 1597 1597 1598 1599 1599 1599 1600 1600 1601 1601 1601 1602 1602 1603 1604 1604 1605 1606 1606 1606 1607 1607 1608 1608 1608 1608 1609 1608 1608 1608 1607 1607 1607 1606 1606 1605 1605 1605 1605 1605 1605 1604 1603 1602 1601 1600 1599 1599 1599 1598 1598 1597 1596 1595 1594 1593 1591 1590 1588 1587 1585 1584 1582 1581 1579 1578 1577 1575 1574 1573 1571
1580 1581 1582 1583 1584 1585 1586 1588 1589 1590 1591 1592 1593 1594 1595 1596 1597 1597 1598 1599 1599 1599 1600 1600 1600 1601 1601 1602 1603 1604 1604 1605 1606 1606 1606 1606 1607 1607 1607 1607 1607 1607 1607 1607 1606 1606 1606 1606 1605 1604 1604 1604 1605 1604 1604 1603 1602 1601 1600 1599 1598 1597 1597 1597 1596 1595 1594 1593 1591 1590 1589 1587 1586 1585 1583 1582 1580 1579 1577 1575 1574 1572 1571 1570 1568
1577 1579 1580 1581 1583 1583 1584 1586 1587 1588 1590 1591 1592 1593 1593 1595 1595 1596 1597 1597 1598 1598 1598 1599 1599 1600 1600 1601 1602 1602 1603 1604 1604 1605 1605 1605 1606 1606 1606 1606 1606 1606 1606 1606 1605 1605 1605 1605 1604 1603 1603 1603 1603 1603 1602 1601 1601 1599 1598 1596 1595 1595 1595 1595 1594 1593 1592 1591 1589 1588 1587 1586 1585 1584 1582 1580 1578 1577 1575 1573 1571 1569 1568 1567 1565
1575 1576 1578 1579 1581 1582 1582 1584 1585 1586 1588 1589 1590 1591 1592 1593 1594 1594 1595 1596 1596 1597 1597 1598 1598 1599 1599 1600 1600 1601 1602 1603 1603 1604 1604 1604 1604 1605 1605 1605 1605 1605 1605 1605 1604 1604 1604 1604 1603 1603 1603 1602 1601 1601 1600 1599 1599 1597 1596 1595 1594 1593 1593 1593 1592 1591 1590 1589 1588 1587 1586 1585 1584 1582 1580 1578 1576 1575 1573 1570 1568 1566 1565 1563 1562
1572 1574 1575 1577 1578 1580 1581 1582 1583 1584 1585 1587 1588 1589 1590 1591 1592 1593 1593 1594 1595 1595 1596 1596 1597 1597 1598 1598 1599 1600 1601 1601 1602 1603 1603 1603 1603 1603 1604 1604 1604 1604 1604 1604 1603 1603 1603 1603 1602 1602 1602 1601 1600 1600 1599 1597 1597 1596 1594 1593 1593 1592 1592 1591 1591 1590 1589 1588 1587 1585 1584 1583 1581 1579 1578 1576 1574 1572 1570 1568 1566 1563 1562 1560 1558
1569 1571 1573 1574 1576 1577 1578 1580 1581 1582 1583 1584 1586 1587 1588 1589 1590 1591 1591 1592 1593 1594 1594 1595 1595 1596 1596 1597 1597 1598 1599 1600 1601 1601 1602 1602 1602 1602 1602 1603 1603 1603 1603 1602 1602 1601 1601 1601 1600 1600 1600 1599 1598 1598 1597 1596 1595 1594 1593 1592 1592 1591 1590 1590 1589 1587 1586 1585 1584 1583 1581 1580 1578 1577 1575 1573 1570 1568 1567 1565 1563 1561 1559 1557 1555
1566 1568 1570 1572 1573 1574 1576 1577 1578 1580 1581 1582 1583 1584 1585 1587 1588 1589 1589 1590 1591 1592 1593 1593 1593 1594 1594 1595 1596 1596 1597 1598 1599 1600 1601 1601 1601 1601 1601 1601 1601 1601 1601 1601 1601 1600 1599 1599 1598 1597 1597 1597 1596 1596 1595 1594 1593 1593 1591 1590 1590 1589 1589 1588 1586 1585 1584 1583 1582 1581 1579 1578 1576 1574 1572 1570 1568 1566 1564 1562 1560 1558 1556 1554 1553
1563 1565 1567 1569 1570 1571 1573 1574 1575 1577 1578 1579 1580 1581 1583 1584 1585 1586 1587 1588 1589 1590 1591 1591 1592 1592 1593 1593 1594 1595 1595 1596 1597 1598 1599 1599 1600 1600 1599 1599 1599 1599 1600 1599 1599 1598 1598 1596 1596 1595 1595 1595 1594 1594 1594 1592 1591 1590 1589 1588 1587 1587 1586 1585 1584 1583 1582 1581 1580 1579 1578 1576 1573 1571 1570 1568 1566 1564 1562 1560 1558 1555 1554 1552 1551
1559 1561 1563 1565 1567 1568 1569 1570 1572 1574 1575 1576 1577 1578 1580 1581 1582 1584 1585 1586 1587 1587 1588 1589 1590 1591 1591 1591 1592 1593 1594 1594 1595 1596 1597 1597 1598 1598 1598 1598 1598 1598 1598 1597 1597 1597 1597 1595 1594 1594 1593 1593 1592 1592 1591 1590 1588 1587 1586 1586 1585 1584 1583 1582 1581 1580 1580 1580 1579 1577 1576 1574 1572 1570 1569 1566 1564 1562 1559 1557 1555 1553 1552 1551 1549
1556 1558 1559 1561 1563 1564 1566 1567 1568 1570 1572 1573 1574 1575 1577 1578 1580 1581 1582 1584 1585 1585 1586 1587 1588 1589 1589 1590 1590 1591 1592 1592 1593 1594 1595 1595 1596 1596 1596 1597 1597 1596 1596 1596 1596 1596 1596 1595 1593 1592 1591 1591 1590 1589 1589 1588 1585 1583 1583 1583 1583 1582 1581 1580 1579 1579 1579 1578 1577 1575 1574 1572 1570 1568 1567 1564 1562 1560 1558 1555 1553 1551 1550 1549 1548
1552 1554 1556 1557 1559 1561 1563 1564 1566 1567 1568 1570 1571 1573 1574 1576 1577 1578 1579 1581 1582 1583 1584 1585 1585 1586 1587 1588 1589 1589 1590 1590 1591 1592 1592 1593 1594 1594 1594 1594 1595 1595 1594 1594 1594 1594 1593 1593 1592 1591 1589 1589 1588 1586 1586 1585 1584 1582 1581 1580 1580 1579 1578 1578 1577 1577 1577 1576 1575 1573 1572 1570 1568 1566 1564 1562 1560 1558 1556 1553 1552 1550 1549 1548 1547
1548 1550 1552 1554 1556 1558 1560 1561 1563 1564 1565 1567 1568 1570 1572 1573 1574 1575 1576 1578 1579 1580 1581 1582 1583 1584 1585 1586 1586 1587 1588 1588 1589 1589 1590 1591 1591 1591 1592 1592 1592 1592 1592 1592 1592 1592 1591 1591 1590 1589 1587 1586 1585 1584 1583 1583 1581 1581 1580 1579 1577 1577 1577 1576 1576 1575 1574 1573 1572 1571 1569 1567 1566 1564 1562 1560 1558 1556 1554 1552 1550 1549 1548 1546 1545
1544 1547 1548 1550 1552 1554 1556 1557 1559 1561 1562 1564 1565 1566 1568 1570 1571 1572 1573 1574 1576 1577 1578 1579 1580 1581 1582 1583 1584 1584 1585 1586 1587 1587 1588 1588 1589 1589 1589 1590 1590 1590 1590 1590 1590 1590 1590 1589 1588 1587 1585 1584 1583 1583 1581 1580 1579 1579 1578 1577 1576 1576 1575 1574 1574 1573 1571 1570 1569 1569 1567 1564 1563 1562 1560 1559 1557 1555 1553 1551 1549 1548 1547 1545 1543
1541 1543 1545 1547 1548 1550 1552 1554 1556 1557 1559 1560 1562 1563 1565 1566 1568 1569 1570 1572 1573 1574 1575 1577 1578 1579 1579 1580 1581 1582 1583 1583 1584 1585 1585 1586 1586 1586 1587 1587 1587 1587 1587 1588 1588 1588 1588 1587 1586 1585 1583 1582 1582 1581 1579 1577 1577 1577 1576 1575 1575 1574 1573 1572 1571 1571 1569 1567 1566 1566 1565 1562 1561 1560 1558 1557 1556 1554 1552 1550 1549 1547 1546 1544 1542
1537 1539 1542 1543 1545 1546 1548 1550 1551 1553 1555 1556 1558 1560 1562 1564 1565 1567 1568 1569 1570 1571 1573 1574 1575 1576 1577 1577 1578 1579 1580 1580 1581 1582 1583 1583 1583 1583 1584 1584 1584 1585 1585 1585 1585 1586 1586 1585 1583 1582 1581 1579 1579 1579 1577 1575 1575 1575 1574 1573 1573 1572 1571 1569 1568 1568 1567 1565 1562 1563 1563 1561 1559 1558 1557 1555 1554 1552 1551 1550 1548 1546 1545 1543 1541
1534 1536 1538 1540 1541 1543 1545 1546 1548 1549 1551 1553 1555 1557 1559 1560 1562 1564 1565 1566 1568 1569 1570 1571 1572 1573 1574 1575 1575 1576 1577 1577 1578 1579 1580 1580 1581 1581 1581 1581 1582 1582 1582 1582 1582 1583 1583 1582 1581 1580 1578 1578 1577 1576 1575 1574 1573 1573 1572 1571 1571 1570 1569 1567 1565 1565 1565 1563 1560 1560 1560 1559 1557 1556 1555 1553 1552 1551 1550 1549 1547 1545 1544 1543 1540
1530 1532 1534 1536 1538 1540 1541 1542 1544 1545 1547 1549 1551 1553 1555 1557 1559 1561 1562 1563 1565 1566 1567 1568 1569 1570 1571 1572 1572 1573 1574 1574 1575 1576 1577 1577 1578 1578 1578 1578 1579 1579 1579 1579 1579 1579 1580 1580 1579 1577 1576 1576 1575 1574 1573 1573 1571 1570 1570 1569 1569 1568 1566 1565 1564 1563 1563 1562 1559 1558 1558 1556 1554 1554 1553 1552 1551 1550 1548 1547 1546 1545 1543 1541 1539
1527 1528 1530 1533 1535 1537 1538 1539 1541 1542 1543 1546 1548 1550 1552 1554 1556 1557 1559 1560 1562 1563 1564 1565 1566 1567 1568 1569 1569 1570 1571 1571 1572 1573 1574 1574 1574 1575 1575 1575 1575 1576 1576 1576 1576 1576 1576 1576 1576 1575 1574 1575 1573 1572 1572 1571 1569 1568 1567 1567 1566 1565 1564 1563 1562 1561 1560 1559 1557 1555 1555 1554 1552 1552 1552 1551 1549 1548 1547 1545 1544 1544 1542 1539 1537
1523 1524 1527 1529 1531 1533 1535 1536 1538 1539 1540 1542 1545 1547 1548 1550 1552 1554 1555 1557 1559 1560 1561 1562 1563 1564 1565 1566 1566 1567 1567 1568 1569 1570 1570 1571 1571 1571 1571 1571 1572 1572 1572 1572 1572 1572 1573 1573 1573 1572 1572 1572 1571 1570 1569 1569 1567 1566 1565 1565 1564 1563 1562 1561 1560 1559 1558 1557 1555 1554 1553 1552 1551 1550 1550 1549 1548 1547 1545 1543 1542 1541 1539 1537 1535
1520 1521 1523 1525 1527 1530 1532 1533 1534 1536 1537 1539 1541 1543 1545 1547 1549 1551 1552 1554 1556 1557 1558 1559 1560 1561 1562 1562 1563 1563 1564 1565 1566 1567 1568 1568 1568 1568 1568 1568 1568 1568 1568 1569 1569 1569 1569 1569 1570 1569 1569 1569 1569 1568 1567 1566 1565 1564 1563 1563 1562 1561 1560 1559 1557 1557 1556 1555 1554 1553 1552 1551 1550 1549 1548 1548 1547 1545 1543 1542 1541 1539 1537 1536 1534
1516 1518 1519 1521 1523 1526 1528 1530 1531 1532 1534 1536 1537 1540 1541 1543 1546 1548 1549 1551 1552 1553 1554 1555 1556 1557 1558 1559 1559 1560 1560 1561 1562 1564 1565 1565 1565 1565 1565 1565 1565 1564 1564 1565 1565 1565 1565 1566 1566 1566 1566 1566 1566 1565 1564 1563 1563 1562 1562 1561 1560 1560 1558 1557 1556 1555 1554 1553 1553 1552 1551 1550 1549 1547 1546 1545 1545 1544 1542 1540 1539 1537 1536 1534 1532
1512 1514 1516 1518 1520 1522 1524 1526 1528 1529 1531 1532 1534 1536 1538 1540 1542 1544 1546 1547 1549 1550 1551 1552 1552 1553 1554 1555 1556 1556 1557 1557 1559 1560 1561 1562 1562 1562 1562 1562 1561 1560 1560 1561 1562 1561 1561 1562 1562 1563 1563 1563 1563 1562 1561 1561 1561 1560 1560 1560 1559 1558 1557 1556 1555 1554 1553 1552 1551 1550 1550 1549 1547 1546 1544 1542 1541 1541 1541 1539 1537 1535 1533 1532 1530
1510 1512 1513 1515 1517 1518 1520 1522 1524 1526 1528 1529 1531 1533 1535 1537 1539 1540 1542 1544 1545 1546 1547 1548 1549 1550 1551 1552 1552 1553 1553 1554 1555 1556 1558 1558 1559 1558 1559 1559 1558 1556 1557 1558 1558 1558 1557 1557 1558 1559 1560 1560 1561 1560 1559 1559 1559 1559 1559 1559 1559 1558 1557 1556 1555 1554 1553 1551 1549 1549 1548 1547 1545 1544 1542 1540 1539 1538 1538 1537 1535 1533 1531 1529 1528